| time (UTC) | temp C | wind direction | speed KPH | gust KPH | rain 1hr cm | rain 24hr cm | rain mn cm | humidity % | barometer mb |
| 20260906003710 | 32 | 59 | 0.0 | 0.0 | 0.00 | 0.00 | 0.00 | 69 | 996.9 |
| 20260906003206 | 32 | 60 | 0.0 | 0.0 | 0.00 | 0.00 | 0.00 | 69 | 997.2 |
| 20260906002706 | 32 | 59 | 0.0 | 0.0 | 0.00 | 0.00 | 0.00 | 69 | 997.1 |
| 20260906002201 | 32 | 61 | 0.0 | 0.0 | 0.00 | 0.00 | 0.00 | 68 | 997.2 |
| 20260906001656 | 32 | 59 | 0.0 | 0.0 | 0.00 | 0.00 | 0.00 | 68 | 997.1 |
| 20260906001155 | 32 | 64 | 0.0 | 0.0 | 0.00 | 0.00 | 0.00 | 68 | 997.2 |
| 20260906000651 | 32 | 64 | 0.0 | 0.0 | 0.00 | 0.00 | 0.00 | 68 | 997.2 |
| 20260906000146 | 32 | 61 | 0.0 | 0.0 | 0.00 | 0.00 | 0.00 | 67 | 997.1 |
| 20260905235645 | 33 | 62 | 0.0 | 0.0 | 0.00 | 0.00 | 0.00 | 66 | 997.3 |
| 20260905235141 | 33 | 61 | 0.0 | 0.0 | 0.00 | 0.00 | 0.00 | 66 | 997.1 |
| 20260905234636 | 33 | 60 | 0.0 | 0.0 | 0.00 | 0.00 | 0.00 | 65 | 997.0 |
| 20260905234131 | 33 | 59 | 0.0 | 0.0 | 0.00 | 0.00 | 0.00 | 65 | 997.2 |
| 20260905233626 | 33 | 62 | 0.0 | 0.0 | 0.00 | 0.00 | 0.00 | 64 | 997.2 |
| 20260905233120 | 33 | 59 | 0.0 | 0.0 | 0.00 | 0.00 | 0.00 | 64 | 997.0 |
| 20260905232616 | 33 | 58 | 0.0 | 0.0 | 0.00 | 0.00 | 0.00 | 63 | 997.1 |
| 20260905232111 | 33 | 58 | 0.0 | 0.0 | 0.00 | 0.00 | 0.00 | 63 | 996.9 |
| 20260905231606 | 33 | 58 | 0.0 | 0.0 | 0.00 | 0.00 | 0.00 | 63 | 997.0 |
| 20260905231102 | 34 | 59 | 0.0 | 0.0 | 0.00 | 0.00 | 0.00 | 62 | 996.9 |
| 20260905230603 | 34 | 62 | 0.0 | 0.0 | 0.00 | 0.00 | 0.00 | 62 | 996.9 |
| 20260905230100 | 34 | 62 | 0.0 | 0.0 | 0.00 | 0.00 | 0.00 | 62 | 996.9 |
| 20260905225554 | 34 | 65 | 0.0 | 0.0 | 0.00 | 0.00 | 0.00 | 61 | 997.1 |
| 20260905225050 | 35 | 59 | 0.0 | 0.0 | 0.00 | 0.00 | 0.00 | 59 | 997.2 |
| 20260905224550 | 35 | 50 | 0.0 | 0.0 | 0.00 | 0.00 | 0.00 | 60 | 997.0 |
| 20260905224049 | 35 | 61 | 0.0 | 0.0 | 0.00 | 0.00 | 0.00 | 59 | 996.8 |
| 20260905223547 | 35 | 58 | 0.0 | 0.0 | 0.00 | 0.00 | 0.00 | 58 | 996.7 |
| 20260905223042 | 36 | 55 | 1.6 | 3.2 | 0.00 | 0.00 | 0.00 | 57 | 996.8 |
| 20260905222543 | 36 | 58 | 0.0 | 1.6 | 0.00 | 0.00 | 0.00 | 56 | 996.9 |
| 20260905222038 | 36 | 57 | 0.0 | 0.0 | 0.00 | 0.00 | 0.00 | 55 | 996.8 |
| 20260905221534 | 36 | 341 | 4.8 | 4.8 | 0.00 | 0.00 | 0.00 | 54 | 996.8 |
| 20260905221030 | 36 | 21 | 6.4 | 8.0 | 0.00 | 0.00 | 0.00 | 54 | 997.0 |
| 20260905220526 | 36 | 49 | 4.8 | 4.8 | 0.00 | 0.00 | 0.00 | 53 | 996.7 |
| 20260905220022 | 37 | 42 | 4.8 | 4.8 | 0.00 | 0.00 | 0.00 | 53 | 996.8 |
| 20260905215521 | 37 | 358 | 3.2 | 3.2 | 0.00 | 0.00 | 0.00 | 51 | 996.8 |
| 20260905215017 | 37 | 18 | 0.0 | 1.6 | 0.00 | 0.00 | 0.00 | 52 | 997.0 |
| 20260905214513 | 37 | 63 | 0.0 | 0.0 | 0.00 | 0.00 | 0.00 | 51 | 997.1 |
| 20260905214008 | 37 | 53 | 4.8 | 4.8 | 0.00 | 0.00 | 0.00 | 51 | 996.8 |
| 20260905213503 | 37 | 14 | 3.2 | 3.2 | 0.00 | 0.00 | 0.00 | 50 | 996.7 |
| 20260905212958 | 37 | 12 | 4.8 | 8.0 | 0.00 | 0.00 | 0.00 | 53 | 996.8 |
| 20260905212453 | 37 | 20 | 1.6 | 3.2 | 0.00 | 0.00 | 0.00 | 52 | 997.0 |
| 20260905211952 | 37 | 29 | 1.6 | 3.2 | 0.00 | 0.00 | 0.00 | 53 | 997.0 |
| 20260905211448 | 36 | 10 | 4.8 | 4.8 | 0.00 | 0.00 | 0.00 | 54 | 996.9 |
| 20260905210943 | 36 | 3 | 1.6 | 1.6 | 0.00 | 0.00 | 0.00 | 55 | 997.2 |
| 20260905210439 | 35 | 312 | 4.8 | 9.7 | 0.00 | 0.00 | 0.00 | 57 | 997.0 |
| 20260905205938 | 36 | 40 | 0.0 | 1.6 | 0.00 | 0.00 | 0.00 | 56 | 997.3 |
| 20260905205433 | 36 | 31 | 1.6 | 3.2 | 0.00 | 0.00 | 0.00 | 57 | 997.1 |
| 20260905204932 | 35 | 356 | 3.2 | 3.2 | 0.00 | 0.00 | 0.00 | 57 | 997.3 |
| 20260905204428 | 35 | 0 | 0.0 | 3.2 | 0.00 | 0.00 | 0.00 | 57 | 997.3 |
| 20260905203927 | 36 | 81 | 4.8 | 4.8 | 0.00 | 0.00 | 0.00 | 54 | 997.5 |
| 20260905203422 | 36 | 37 | 1.6 | 1.6 | 0.00 | 0.00 | 0.00 | 53 | 997.2 |
| 20260905202918 | 37 | 69 | 6.4 | 9.7 | 0.00 | 0.00 | 0.00 | 52 | 997.3 |
| 20260905202413 | 37 | 50 | 3.2 | 4.8 | 0.00 | 0.00 | 0.00 | 50 | 997.4 |
| 20260905201909 | 37 | 15 | 4.8 | 8.0 | 0.00 | 0.00 | 0.00 | 49 | 997.3 |
| 20260905201404 | 37 | 29 | 1.6 | 1.6 | 0.00 | 0.00 | 0.00 | 47 | 997.2 |
| 20260905200903 | 38 | 66 | 0.0 | 0.0 | 0.00 | 0.00 | 0.00 | 47 | 997.2 |
| 20260905200359 | 38 | 68 | 0.0 | 0.0 | 0.00 | 0.00 | 0.00 | 47 | 997.2 |
| 20260905195857 | 39 | 351 | 3.2 | 3.2 | 0.00 | 0.00 | 0.00 | 45 | 997.4 |
| 20260905195353 | 38 | 247 | 4.8 | 4.8 | 0.00 | 0.00 | 0.00 | 45 | 997.7 |
| 20260905194848 | 40 | 41 | 3.2 | 8.0 | 0.00 | 0.00 | 0.00 | 44 | 997.3 |
| 20260905194348 | 40 | 54 | 0.0 | 0.0 | 0.00 | 0.00 | 0.00 | 45 | 997.6 |
| 20260905193848 | 38 | 27 | 3.2 | 4.8 | 0.00 | 0.00 | 0.00 | 46 | 997.6 |
| 20260905193342 | 38 | 8 | 3.2 | 3.2 | 0.00 | 0.00 | 0.00 | 46 | 997.6 |
| 20260905192838 | 38 | 32 | 4.8 | 4.8 | 0.00 | 0.00 | 0.00 | 46 | 997.5 |
| 20260905192334 | 38 | 351 | 4.8 | 4.8 | 0.00 | 0.00 | 0.00 | 46 | 997.6 |
| 20260905191833 | 38 | 30 | 3.2 | 3.2 | 0.00 | 0.00 | 0.00 | 46 | 997.9 |
| 20260905191332 | 38 | 14 | 3.2 | 4.8 | 0.00 | 0.00 | 0.00 | 46 | 997.9 |
| 20260905190831 | 38 | 10 | 6.4 | 11.3 | 0.00 | 0.00 | 0.00 | 46 | 997.8 |
| 20260905190325 | 38 | 331 | 6.4 | 9.7 | 0.00 | 0.00 | 0.00 | 46 | 998.0 |
| 20260905185824 | 38 | 19 | 8.0 | 9.7 | 0.00 | 0.00 | 0.00 | 46 | 997.8 |
| 20260905185319 | 38 | 3 | 6.4 | 9.7 | 0.00 | 0.00 | 0.00 | 44 | 997.9 |
| 20260905184818 | 38 | 306 | 1.6 | 1.6 | 0.00 | 0.00 | 0.00 | 44 | 998.0 |
| 20260905184317 | 38 | 322 | 4.8 | 8.0 | 0.00 | 0.00 | 0.00 | 46 | 998.0 |
| 20260905183816 | 38 | 352 | 1.6 | 1.6 | 0.00 | 0.00 | 0.00 | 45 | 998.2 |
| 20260905183312 | 38 | 293 | 1.6 | 3.2 | 0.00 | 0.00 | 0.00 | 46 | 998.3 |
| 20260905182806 | 38 | 295 | 6.4 | 8.0 | 0.00 | 0.00 | 0.00 | 47 | 998.4 |
| 20260905182306 | 37 | 51 | 0.0 | 0.0 | 0.00 | 0.00 | 0.00 | 47 | 998.4 |
| 20260905181801 | 38 | 340 | 3.2 | 3.2 | 0.00 | 0.00 | 0.00 | 45 | 998.6 |
| 20260905181301 | 38 | 325 | 4.8 | 8.0 | 0.00 | 0.00 | 0.00 | 44 | 998.6 |
| 20260905180754 | 39 | 30 | 4.8 | 4.8 | 0.00 | 0.00 | 0.00 | 45 | 998.5 |
| 20260905180250 | 38 | 297 | 3.2 | 4.8 | 0.00 | 0.00 | 0.00 | 48 | 998.6 |
| 20260905175744 | 38 | 84 | 1.6 | 1.6 | 0.00 | 0.00 | 0.00 | 47 | 998.6 |
| 20260905175239 | 38 | 1 | 4.8 | 4.8 | 0.00 | 0.00 | 0.00 | 49 | 998.6 |
| 20260905174734 | 38 | 46 | 1.6 | 1.6 | 0.00 | 0.00 | 0.00 | 50 | 998.6 |
| 20260905174230 | 39 | 357 | 3.2 | 4.8 | 0.00 | 0.00 | 0.00 | 50 | 998.6 |
| 20260905173726 | 38 | 54 | 0.0 | 1.6 | 0.00 | 0.00 | 0.00 | 50 | 998.7 |
| 20260905173221 | 37 | 62 | 0.0 | 0.0 | 0.00 | 0.00 | 0.00 | 51 | 998.8 |
| 20260905172715 | 37 | 34 | 0.0 | 0.0 | 0.00 | 0.00 | 0.00 | 51 | 998.9 |
| 20260905172209 | 37 | 89 | 0.0 | 0.0 | 0.00 | 0.00 | 0.00 | 53 | 998.8 |
| 20260905171705 | 37 | 101 | 3.2 | 3.2 | 0.00 | 0.00 | 0.00 | 54 | 998.9 |
| 20260905171201 | 37 | 330 | 3.2 | 3.2 | 0.00 | 0.00 | 0.00 | 54 | 998.8 |
| 20260905170658 | 38 | 91 | 1.6 | 1.6 | 0.00 | 0.00 | 0.00 | 53 | 998.8 |
| 20260905170157 | 37 | 74 | 0.0 | 1.6 | 0.00 | 0.00 | 0.00 | 53 | 999.2 |
| 20260905165652 | 38 | 340 | 1.6 | 1.6 | 0.00 | 0.00 | 0.00 | 55 | 999.2 |
| 20260905165147 | 37 | 2 | 0.0 | 0.0 | 0.00 | 0.00 | 0.00 | 53 | 999.2 |
| 20260905164642 | 37 | 294 | 1.6 | 3.2 | 0.00 | 0.00 | 0.00 | 53 | 999.3 |
| 20260905164141 | 37 | 124 | 0.0 | 1.6 | 0.00 | 0.00 | 0.00 | 54 | 999.3 |
| 20260905163638 | 36 | 0 | 0.0 | 1.6 | 0.00 | 0.00 | 0.00 | 56 | 999.3 |
| 20260905163134 | 36 | 102 | 1.6 | 1.6 | 0.00 | 0.00 | 0.00 | 58 | 999.4 |
| 20260905162630 | 36 | 45 | 0.0 | 0.0 | 0.00 | 0.00 | 0.00 | 56 | 999.4 |
| 20260905162129 | 36 | 69 | 0.0 | 0.0 | 0.00 | 0.00 | 0.00 | 55 | 999.8 |
| 20260905161629 | 35 | 40 | 3.2 | 3.2 | 0.00 | 0.00 | 0.00 | 59 | 999.5 |
| 20260905161127 | 35 | 29 | 0.0 | 1.6 | 0.00 | 0.00 | 0.00 | 59 | 999.6 |
| 20260905160627 | 35 | 18 | 1.6 | 1.6 | 0.00 | 0.00 | 0.00 | 60 | 999.5 |
| 20260905160121 | 35 | 52 | 0.0 | 1.6 | 0.00 | 0.00 | 0.00 | 61 | 999.7 |
| 20260905155621 | 35 | 44 | 1.6 | 3.2 | 0.00 | 0.00 | 0.00 | 60 | 999.6 |
| 20260905155119 | 35 | 12 | 1.6 | 3.2 | 0.00 | 0.00 | 0.00 | 62 | 999.4 |
| 20260905154614 | 35 | 77 | 0.0 | 0.0 | 0.00 | 0.00 | 0.00 | 62 | 999.8 |
| 20260905154110 | 34 | 33 | 0.0 | 0.0 | 0.00 | 0.00 | 0.00 | 63 | 999.6 |
| 20260905153606 | 34 | 319 | 4.8 | 4.8 | 0.00 | 0.00 | 0.00 | 64 | 999.7 |
| 20260905153100 | 33 | 48 | 1.6 | 1.6 | 0.00 | 0.00 | 0.00 | 64 | 999.5 |
| 20260905152555 | 34 | 96 | 1.6 | 1.6 | 0.00 | 0.00 | 0.00 | 65 | 999.5 |
| 20260905152050 | 33 | 80 | 1.6 | 1.6 | 0.00 | 0.00 | 0.00 | 65 | 999.7 |
| 20260905151545 | 33 | 41 | 0.0 | 0.0 | 0.00 | 0.00 | 0.00 | 66 | 999.5 |
| 20260905151040 | 33 | 17 | 1.6 | 1.6 | 0.00 | 0.00 | 0.00 | 67 | 999.8 |
| 20260905150536 | 32 | 73 | 0.0 | 1.6 | 0.00 | 0.00 | 0.00 | 69 | 999.5 |
| 20260905150033 | 32 | 21 | 1.6 | 1.6 | 0.00 | 0.00 | 0.00 | 68 | 999.4 |
| 20260905145527 | 32 | 60 | 0.0 | 0.0 | 0.00 | 0.00 | 0.00 | 70 | 999.5 |
| 20260905145027 | 31 | 11 | 1.6 | 3.2 | 0.00 | 0.00 | 0.00 | 72 | 999.5 |
| 20260905144522 | 31 | 43 | 3.2 | 3.2 | 0.00 | 0.00 | 0.00 | 73 | 999.7 |
| 20260905144021 | 31 | 64 | 0.0 | 1.6 | 0.00 | 0.00 | 0.00 | 74 | 999.7 |
| 20260905143520 | 31 | 322 | 1.6 | 3.2 | 0.00 | 0.00 | 0.00 | 74 | 999.8 |
| 20260905143015 | 31 | 40 | 0.0 | 0.0 | 0.00 | 0.00 | 0.00 | 75 | 999.6 |
| 20260905142514 | 30 | 38 | 0.0 | 1.6 | 0.00 | 0.00 | 0.00 | 75 | 999.5 |
| 20260905142009 | 30 | 27 | 0.0 | 1.6 | 0.00 | 0.00 | 0.00 | 76 | 999.5 |
| 20260905141503 | 30 | 25 | 1.6 | 1.6 | 0.00 | 0.00 | 0.00 | 76 | 999.4 |
| 20260905141000 | 30 | 43 | 0.0 | 0.0 | 0.00 | 0.00 | 0.00 | 75 | 999.5 |
| 20260905140455 | 30 | 69 | 0.0 | 0.0 | 0.00 | 0.00 | 0.00 | 75 | 999.7 |
| 20260905135953 | 30 | 52 | 0.0 | 0.0 | 0.00 | 0.00 | 0.00 | 75 | 999.6 |
| 20260905135449 | 30 | 78 | 0.0 | 0.0 | 0.00 | 0.00 | 0.00 | 77 | 999.4 |
| 20260905134944 | 30 | 81 | 0.0 | 0.0 | 0.00 | 0.00 | 0.00 | 77 | 999.6 |
| 20260905134444 | 29 | 63 | 0.0 | 0.0 | 0.00 | 0.00 | 0.00 | 78 | 999.7 |
| 20260905133943 | 29 | 96 | 0.0 | 1.6 | 0.00 | 0.00 | 0.00 | 77 | 999.9 |
| 20260905133438 | 28 | 84 | 0.0 | 0.0 | 0.00 | 0.00 | 0.00 | 78 | 999.7 |
| 20260905132938 | 28 | 79 | 0.0 | 0.0 | 0.00 | 0.00 | 0.00 | 78 | 999.7 |
| 20260905132433 | 28 | 61 | 0.0 | 0.0 | 0.00 | 0.00 | 0.00 | 79 | 999.4 |
| 20260905131928 | 28 | 71 | 0.0 | 0.0 | 0.00 | 0.00 | 0.00 | 80 | 999.8 |
| 20260905131424 | 28 | 72 | 0.0 | 0.0 | 0.00 | 0.00 | 0.00 | 80 | 999.7 |
| 20260905130923 | 27 | 69 | 0.0 | 0.0 | 0.00 | 0.00 | 0.00 | 81 | 999.6 |
| 20260905130418 | 27 | 72 | 0.0 | 0.0 | 0.00 | 0.00 | 0.00 | 83 | 999.8 |
| 20260905125918 | 27 | 88 | 0.0 | 1.6 | 0.00 | 0.00 | 0.00 | 84 | 999.6 |
| 20260905125413 | 27 | 70 | 0.0 | 0.0 | 0.00 | 0.00 | 0.00 | 83 | 999.7 |
| 20260905124908 | 27 | 72 | 0.0 | 0.0 | 0.00 | 0.00 | 0.00 | 83 | 999.5 |
| 20260905124405 | 27 | 83 | 1.6 | 1.6 | 0.00 | 0.00 | 0.00 | 84 | 999.3 |
| 20260905123904 | 27 | 81 | 0.0 | 0.0 | 0.00 | 0.00 | 0.00 | 85 | 999.5 |
| 20260905123401 | 26 | 76 | 0.0 | 0.0 | 0.00 | 0.00 | 0.00 | 85 | 999.3 |
| 20260905122856 | 26 | 77 | 0.0 | 0.0 | 0.00 | 0.00 | 0.00 | 85 | 999.4 |
| 20260905122355 | 26 | 87 | 0.0 | 1.6 | 0.00 | 0.00 | 0.00 | 86 | 999.3 |
| 20260905121851 | 26 | 81 | 0.0 | 1.6 | 0.00 | 0.00 | 0.00 | 86 | 999.3 |
| 20260905121347 | 26 | 83 | 0.0 | 0.0 | 0.00 | 0.00 | 0.00 | 86 | 999.3 |
| 20260905120846 | 26 | 79 | 0.0 | 0.0 | 0.00 | 0.00 | 0.00 | 86 | 999.4 |
| 20260905120340 | 26 | 75 | 0.0 | 0.0 | 0.00 | 0.00 | 0.00 | 86 | 999.1 |
| 20260905115836 | 26 | 77 | 0.0 | 0.0 | 0.00 | 0.00 | 0.00 | 86 | 999.1 |
| 20260905115335 | 26 | 78 | 1.6 | 1.6 | 0.00 | 0.00 | 0.00 | 87 | 998.9 |
| 20260905114834 | 26 | 70 | 0.0 | 0.0 | 0.00 | 0.00 | 0.00 | 86 | 999.1 |
| 20260905114334 | 26 | 77 | 0.0 | 0.0 | 0.00 | 0.00 | 0.00 | 86 | 998.9 |
| 20260905113828 | 26 | 76 | 1.6 | 1.6 | 0.00 | 0.00 | 0.00 | 86 | 998.9 |
| 20260905113324 | 26 | 74 | 0.0 | 0.0 | 0.00 | 0.00 | 0.00 | 85 | 999.1 |
| 20260905112819 | 26 | 75 | 0.0 | 0.0 | 0.00 | 0.00 | 0.00 | 85 | 998.8 |
| 20260905112314 | 26 | 59 | 0.0 | 0.0 | 0.00 | 0.00 | 0.00 | 84 | 999.0 |
| 20260905111809 | 27 | 57 | 0.0 | 0.0 | 0.00 | 0.00 | 0.00 | 83 | 998.8 |
| 20260905111303 | 27 | 57 | 0.0 | 0.0 | 0.00 | 0.00 | 0.00 | 83 | 998.9 |
| 20260905110802 | 27 | 57 | 0.0 | 0.0 | 0.00 | 0.00 | 0.00 | 83 | 998.7 |
| 20260905110256 | 27 | 57 | 0.0 | 0.0 | 0.00 | 0.00 | 0.00 | 84 | 998.7 |
| 20260905105752 | 27 | 57 | 0.0 | 0.0 | 0.00 | 0.00 | 0.00 | 83 | 999.0 |
| 20260905105251 | 27 | 55 | 0.0 | 0.0 | 0.00 | 0.00 | 0.00 | 83 | 998.8 |
| 20260905104746 | 27 | 55 | 0.0 | 0.0 | 0.00 | 0.00 | 0.00 | 83 | 998.8 |
| 20260905104242 | 27 | 55 | 0.0 | 0.0 | 0.00 | 0.00 | 0.00 | 83 | 998.8 |
| 20260905103736 | 27 | 55 | 0.0 | 0.0 | 0.00 | 0.00 | 0.00 | 83 | 998.7 |
| 20260905103232 | 27 | 55 | 0.0 | 0.0 | 0.00 | 0.00 | 0.00 | 82 | 998.6 |
| 20260905102727 | 27 | 55 | 0.0 | 0.0 | 0.00 | 0.00 | 0.00 | 81 | 998.8 |
| 20260905102224 | 27 | 55 | 0.0 | 0.0 | 0.00 | 0.00 | 0.00 | 81 | 998.9 |
| 20260905101723 | 27 | 55 | 0.0 | 0.0 | 0.00 | 0.00 | 0.00 | 81 | 999.1 |
| 20260905101221 | 27 | 55 | 0.0 | 0.0 | 0.00 | 0.00 | 0.00 | 81 | 999.0 |
| 20260905100717 | 27 | 54 | 0.0 | 0.0 | 0.00 | 0.00 | 0.00 | 81 | 998.9 |
| 20260905100212 | 27 | 53 | 0.0 | 0.0 | 0.00 | 0.00 | 0.00 | 82 | 999.1 |
| 20260905095712 | 27 | 51 | 0.0 | 0.0 | 0.00 | 0.00 | 0.00 | 81 | 998.7 |
| 20260905095207 | 27 | 51 | 0.0 | 0.0 | 0.00 | 0.00 | 0.00 | 80 | 998.6 |
| 20260905094706 | 27 | 51 | 0.0 | 0.0 | 0.00 | 0.00 | 0.00 | 80 | 998.7 |
| 20260905094201 | 27 | 51 | 0.0 | 0.0 | 0.00 | 0.00 | 0.00 | 80 | 998.7 |
| 20260905093655 | 27 | 51 | 0.0 | 0.0 | 0.00 | 0.00 | 0.00 | 80 | 998.7 |
| 20260905093151 | 27 | 51 | 0.0 | 0.0 | 0.00 | 0.00 | 0.00 | 80 | 998.7 |
| 20260905092646 | 27 | 51 | 0.0 | 0.0 | 0.00 | 0.00 | 0.00 | 79 | 998.6 |
| 20260905092142 | 28 | 51 | 0.0 | 0.0 | 0.00 | 0.00 | 0.00 | 79 | 998.6 |
| 20260905091636 | 28 | 52 | 0.0 | 0.0 | 0.00 | 0.00 | 0.00 | 78 | 998.8 |
| 20260905091135 | 28 | 47 | 0.0 | 0.0 | 0.00 | 0.00 | 0.00 | 77 | 998.5 |
| 20260905090631 | 28 | 44 | 0.0 | 1.6 | 0.00 | 0.00 | 0.00 | 77 | 998.7 |
| 20260905090126 | 28 | 46 | 1.6 | 3.2 | 0.00 | 0.00 | 0.00 | 77 | 998.6 |
| 20260905085625 | 28 | 43 | 0.0 | 0.0 | 0.00 | 0.00 | 0.00 | 78 | 998.7 |
| 20260905085120 | 28 | 50 | 0.0 | 1.6 | 0.00 | 0.00 | 0.00 | 78 | 998.7 |
| 20260905084619 | 28 | 47 | 0.0 | 1.6 | 0.00 | 0.00 | 0.00 | 77 | 998.7 |
| 20260905084114 | 28 | 27 | 1.6 | 1.6 | 0.00 | 0.00 | 0.00 | 77 | 998.8 |
| 20260905083609 | 28 | 41 | 0.0 | 1.6 | 0.00 | 0.00 | 0.00 | 77 | 998.8 |
| 20260905083106 | 28 | 39 | 0.0 | 1.6 | 0.00 | 0.00 | 0.00 | 77 | 999.0 |
| 20260905082601 | 28 | 32 | 1.6 | 1.6 | 0.00 | 0.00 | 0.00 | 77 | 998.8 |
| 20260905082057 | 28 | 42 | 1.6 | 1.6 | 0.00 | 0.00 | 0.00 | 78 | 998.9 |
| 20260905081556 | 28 | 44 | 0.0 | 0.0 | 0.00 | 0.00 | 0.00 | 78 | 998.9 |
| 20260905081051 | 28 | 35 | 0.0 | 0.0 | 0.00 | 0.00 | 0.00 | 78 | 998.8 |
| 20260905080550 | 28 | 19 | 1.6 | 1.6 | 0.00 | 0.00 | 0.00 | 78 | 998.9 |
| 20260905080046 | 28 | 18 | 1.6 | 1.6 | 0.00 | 0.00 | 0.00 | 79 | 999.0 |
| 20260905075544 | 28 | 19 | 1.6 | 1.6 | 0.00 | 0.00 | 0.00 | 79 | 998.8 |
| 20260905075039 | 28 | 16 | 1.6 | 1.6 | 0.00 | 0.00 | 0.00 | 79 | 998.8 |
| 20260905074538 | 28 | 25 | 0.0 | 1.6 | 0.00 | 0.00 | 0.00 | 79 | 998.9 |
| 20260905074034 | 28 | 1 | 1.6 | 1.6 | 0.00 | 0.00 | 0.00 | 78 | 998.9 |
| 20260905073529 | 28 | 348 | 1.6 | 3.2 | 0.00 | 0.00 | 0.00 | 77 | 999.0 |
| 20260905073025 | 28 | 289 | 1.6 | 3.2 | 0.00 | 0.00 | 0.00 | 77 | 998.9 |
| 20260905072524 | 28 | 298 | 1.6 | 3.2 | 0.00 | 0.00 | 0.00 | 76 | 999.0 |
| 20260905072020 | 29 | 285 | 3.2 | 3.2 | 0.00 | 0.00 | 0.00 | 75 | 998.9 |
| 20260905071517 | 29 | 255 | 3.2 | 3.2 | 0.00 | 0.00 | 0.00 | 75 | 999.0 |
| 20260905071017 | 29 | 261 | 3.2 | 3.2 | 0.00 | 0.00 | 0.00 | 76 | 999.1 |
| 20260905070512 | 28 | 248 | 3.2 | 3.2 | 0.00 | 0.00 | 0.00 | 76 | 999.1 |
| 20260905070008 | 28 | 325 | 1.6 | 1.6 | 0.00 | 0.00 | 0.00 | 77 | 999.0 |
| 20260905065505 | 28 | 277 | 1.6 | 3.2 | 0.00 | 0.00 | 0.00 | 77 | 999.1 |
| 20260905065001 | 28 | 354 | 1.6 | 1.6 | 0.00 | 0.00 | 0.00 | 77 | 999.2 |
| 20260905064455 | 28 | 323 | 1.6 | 1.6 | 0.00 | 0.00 | 0.00 | 78 | 999.1 |
| 20260905063950 | 28 | 7 | 1.6 | 1.6 | 0.00 | 0.00 | 0.00 | 77 | 999.3 |
| 20260905063439 | 28 | 16 | 1.6 | 1.6 | 0.00 | 0.00 | 0.00 | 77 | 999.1 |
| 20260905062936 | 28 | 8 | 1.6 | 1.6 | 0.00 | 0.00 | 0.00 | 76 | 999.2 |
| 20260905062435 | 29 | 322 | 1.6 | 1.6 | 0.00 | 0.00 | 0.00 | 76 | 999.1 |
| 20260905061930 | 29 | 355 | 1.6 | 1.6 | 0.00 | 0.00 | 0.00 | 75 | 999.1 |
| 20260905061425 | 29 | 16 | 0.0 | 1.6 | 0.00 | 0.00 | 0.00 | 74 | 999.3 |
| 20260905060924 | 30 | 7 | 1.6 | 1.6 | 0.00 | 0.00 | 0.00 | 74 | 999.2 |
| 20260905060421 | 30 | 19 | 1.6 | 1.6 | 0.00 | 0.00 | 0.00 | 73 | 999.4 |
| 20260905055920 | 30 | 16 | 1.6 | 1.6 | 0.00 | 0.00 | 0.00 | 73 | 999.3 |
| 20260905055415 | 30 | 331 | 1.6 | 3.2 | 0.00 | 0.00 | 0.00 | 72 | 999.2 |
| 20260905054914 | 30 | 68 | 0.0 | 0.0 | 0.00 | 0.00 | 0.00 | 72 | 999.3 |
| 20260905054410 | 30 | 21 | 0.0 | 1.6 | 0.00 | 0.00 | 0.00 | 71 | 999.4 |
| 20260905053910 | 30 | 4 | 1.6 | 1.6 | 0.00 | 0.00 | 0.00 | 71 | 999.3 |
| 20260905053405 | 30 | 112 | 1.6 | 1.6 | 0.00 | 0.00 | 0.00 | 70 | 999.5 |
| 20260905052901 | 30 | 336 | 1.6 | 1.6 | 0.00 | 0.00 | 0.00 | 70 | 999.3 |
| 20260905052400 | 30 | 21 | 0.0 | 0.0 | 0.00 | 0.00 | 0.00 | 70 | 999.5 |
| 20260905051859 | 30 | 25 | 0.0 | 1.6 | 0.00 | 0.00 | 0.00 | 70 | 999.4 |
| 20260905051356 | 30 | 28 | 0.0 | 1.6 | 0.00 | 0.00 | 0.00 | 69 | 999.4 |
| 20260905050853 | 30 | 10 | 1.6 | 1.6 | 0.00 | 0.00 | 0.00 | 68 | 999.4 |
| 20260905050348 | 30 | 6 | 1.6 | 1.6 | 0.00 | 0.00 | 0.00 | 68 | 999.3 |
| 20260905045849 | 30 | 4 | 1.6 | 1.6 | 0.00 | 0.00 | 0.00 | 67 | 999.2 |
| 20260905045344 | 30 | 64 | 1.6 | 1.6 | 0.00 | 0.00 | 0.00 | 67 | 999.2 |
| 20260905044839 | 30 | 66 | 0.0 | 0.0 | 0.00 | 0.00 | 0.00 | 67 | 999.5 |
| 20260905044335 | 30 | 82 | 0.0 | 0.0 | 0.00 | 0.00 | 0.00 | 67 | 999.4 |
| 20260905043833 | 30 | 69 | 0.0 | 0.0 | 0.00 | 0.00 | 0.00 | 67 | 999.4 |
| 20260905043328 | 30 | 41 | 0.0 | 0.0 | 0.00 | 0.00 | 0.00 | 67 | 999.2 |
| 20260905042823 | 30 | 73 | 0.0 | 0.0 | 0.00 | 0.00 | 0.00 | 67 | 999.2 |
| 20260905042322 | 30 | 79 | 0.0 | 0.0 | 0.00 | 0.00 | 0.00 | 67 | 999.1 |
| 20260905041817 | 31 | 71 | 0.0 | 0.0 | 0.00 | 0.00 | 0.00 | 66 | 999.1 |
| 20260905041314 | 31 | 70 | 0.0 | 0.0 | 0.00 | 0.00 | 0.00 | 67 | 999.1 |
| 20260905040809 | 31 | 71 | 0.0 | 0.0 | 0.00 | 0.00 | 0.00 | 66 | 999.1 |
| 20260905040307 | 31 | 81 | 0.0 | 0.0 | 0.00 | 0.00 | 0.00 | 66 | 999.1 |
| 20260905035802 | 31 | 74 | 0.0 | 0.0 | 0.00 | 0.00 | 0.00 | 67 | 999.2 |
| 20260905035258 | 31 | 70 | 0.0 | 0.0 | 0.00 | 0.00 | 0.00 | 65 | 999.4 |
| 20260905034754 | 31 | 72 | 0.0 | 0.0 | 0.00 | 0.00 | 0.00 | 64 | 999.2 |
| 20260905034254 | 31 | 68 | 0.0 | 0.0 | 0.00 | 0.00 | 0.00 | 64 | 999.2 |
| 20260905033753 | 31 | 68 | 0.0 | 0.0 | 0.00 | 0.00 | 0.00 | 63 | 999.2 |
| 20260905033248 | 31 | 75 | 0.0 | 0.0 | 0.00 | 0.00 | 0.00 | 62 | 999.1 |
| 20260905032748 | 31 | 72 | 0.0 | 0.0 | 0.00 | 0.00 | 0.00 | 62 | 999.2 |
| 20260905032243 | 31 | 70 | 0.0 | 0.0 | 0.00 | 0.00 | 0.00 | 63 | 999.2 |
| 20260905031738 | 31 | 71 | 0.0 | 0.0 | 0.00 | 0.00 | 0.00 | 63 | 999.2 |
| 20260905031234 | 31 | 98 | 0.0 | 0.0 | 0.00 | 0.00 | 0.00 | 63 | 999.3 |
| 20260905030729 | 31 | 64 | 0.0 | 0.0 | 0.00 | 0.00 | 0.00 | 62 | 999.2 |
| 20260905030224 | 32 | 80 | 0.0 | 0.0 | 0.00 | 0.00 | 0.00 | 61 | 999.3 |
| 20260905025719 | 32 | 85 | 1.6 | 1.6 | 0.00 | 0.00 | 0.00 | 62 | 999.1 |
| 20260905025215 | 31 | 75 | 0.0 | 0.0 | 0.00 | 0.00 | 0.00 | 62 | 999.4 |
| 20260905024710 | 31 | 70 | 0.0 | 0.0 | 0.00 | 0.00 | 0.00 | 62 | 999.2 |
| 20260905024206 | 31 | 70 | 0.0 | 0.0 | 0.00 | 0.00 | 0.00 | 62 | 999.3 |
| 20260905023700 | 31 | 70 | 0.0 | 0.0 | 0.00 | 0.00 | 0.00 | 62 | 999.1 |
| 20260905023155 | 32 | 70 | 0.0 | 0.0 | 0.00 | 0.00 | 0.00 | 61 | 999.1 |
| 20260905022654 | 32 | 71 | 0.0 | 0.0 | 0.00 | 0.00 | 0.00 | 61 | 999.0 |
| 20260905022150 | 32 | 70 | 0.0 | 0.0 | 0.00 | 0.00 | 0.00 | 61 | 999.1 |
| 20260905021649 | 32 | 66 | 0.0 | 0.0 | 0.00 | 0.00 | 0.00 | 60 | 999.1 |
| 20260905021144 | 32 | 71 | 0.0 | 0.0 | 0.00 | 0.00 | 0.00 | 60 | 999.1 |
| 20260905020639 | 32 | 73 | 0.0 | 0.0 | 0.00 | 0.00 | 0.00 | 60 | 999.2 |
| 20260905020135 | 32 | 68 | 0.0 | 0.0 | 0.00 | 0.00 | 0.00 | 60 | 999.2 |
| 20260905015633 | 32 | 69 | 0.0 | 0.0 | 0.00 | 0.00 | 0.00 | 61 | 998.9 |
| 20260905015127 | 32 | 73 | 0.0 | 0.0 | 0.00 | 0.00 | 0.00 | 62 | 998.9 |
| 20260905014621 | 32 | 64 | 0.0 | 0.0 | 0.00 | 0.00 | 0.00 | 61 | 998.8 |
| 20260905014117 | 32 | 61 | 0.0 | 0.0 | 0.00 | 0.00 | 0.00 | 61 | 998.8 |
| 20260905013613 | 32 | 77 | 0.0 | 1.6 | 0.00 | 0.00 | 0.00 | 60 | 998.7 |
| 20260905013109 | 32 | 71 | 0.0 | 0.0 | 0.00 | 0.00 | 0.00 | 59 | 998.7 |
| 20260905012609 | 32 | 69 | 0.0 | 0.0 | 0.00 | 0.00 | 0.00 | 59 | 998.5 |
| 20260905012106 | 32 | 63 | 0.0 | 0.0 | 0.00 | 0.00 | 0.00 | 60 | 998.8 |
| 20260905011601 | 32 | 63 | 0.0 | 0.0 | 0.00 | 0.00 | 0.00 | 61 | 998.5 |
| 20260905011057 | 32 | 63 | 0.0 | 0.0 | 0.00 | 0.00 | 0.00 | 61 | 998.6 |
| 20260905010556 | 32 | 63 | 0.0 | 0.0 | 0.00 | 0.00 | 0.00 | 60 | 998.6 |
| 20260905010053 | 32 | 63 | 0.0 | 0.0 | 0.00 | 0.00 | 0.00 | 60 | 998.4 |
| 20260905005548 | 32 | 63 | 0.0 | 0.0 | 0.00 | 0.00 | 0.00 | 60 | 998.5 |
| 20260905005043 | 32 | 63 | 0.0 | 0.0 | 0.00 | 0.00 | 0.00 | 60 | 998.2 |
| 20260905004538 | 32 | 63 | 0.0 | 0.0 | 0.00 | 0.00 | 0.00 | 60 | 998.3 |